When you browse on this site, cookies collect data to enhance your experience and personalize the content and advertising you see.
Visit our Privacy Policy to learn more. By continuing to use the site, you agree to this use of cookies and data.
  • în România
  • Lista ţărilor
  • Pe 7 zile
  • Temperatura apei
  • Meteo pe hartă
  • Widget-uri
  • user-avatar
    Intrare

    Meteo pe oră la Bo

    Astăzi, 3 Iunie, Miercuri

    Timp Temperatura Precipitaţii Vânt Presiune Umiditate
    00:00 +25°C° 0 mm 0 m/s 751 mmHg 95%
    01:00 +24°C° 0 mm 0 m/s 750 mmHg 96%
    02:00 +24°C° 0 mm 0 m/s 750 mmHg 97%
    03:00 +24°C° 0 mm 0 m/s 750 mmHg 97%
    04:00 +24°C° 0 mm 0 m/s 750 mmHg 96%
    05:00 +24°C° 0 mm 0 m/s 750 mmHg 96%
    06:00 +25°C° 0 mm 0 m/s 751 mmHg 93%
    07:00 +26°C° 0 mm 0 m/s 751 mmHg 89%
    08:00 +29°C° 0 mm 1 m/s 751 mmHg 86%
    09:00 +30°C° 0 mm 1 m/s 751 mmHg 79%
    10:00 +29°C° 0 mm 0 m/s 751 mmHg 73%
    11:00 +30°C° 0 mm 0 m/s 751 mmHg 66%
    12:00 +30°C° 0.2 mm 0 m/s 750 mmHg 66%
    13:00 +31°C° 0.2 mm 0 m/s 750 mmHg 67%
    14:00 +31°C° 0.2 mm 0 m/s 749 mmHg 68%
    15:00 +31°C° 1 mm 1 m/s 749 mmHg 75%
    16:00 +30°C° 1 mm 1 m/s 749 mmHg 83%
    17:00 +29°C° 1 mm 1 m/s 750 mmHg 91%
    18:00 +28°C° 1.6 mm 1 m/s 750 mmHg 92%
    19:00 +28°C° 1.6 mm 1 m/s 750 mmHg 94%
    20:00 +27°C° 1.6 mm 1 m/s 751 mmHg 96%
    21:00 +27°C° 0 mm 1 m/s 751 mmHg 96%
    22:00 +27°C° 0 mm 1 m/s 751 mmHg 96%
    23:00 +24°C° 0 mm 0 m/s 751 mmHg 96%

    Mâine, 4 Iunie, Joi

    Timp Temperatura Precipitaţii Vânt Presiune Umiditate
    00:00 +24°C° 0 mm 0 m/s 750 mmHg 97%
    01:00 +24°C° 0 mm 0 m/s 750 mmHg 97%
    02:00 +24°C° 0 mm 0 m/s 750 mmHg 97%
    03:00 +24°C° 0 mm 0 m/s 750 mmHg 98%
    04:00 +24°C° 0 mm 0 m/s 750 mmHg 98%
    05:00 +23°C° 0 mm 0 m/s 750 mmHg 98%
    06:00 +25°C° 0 mm 0 m/s 751 mmHg 93%
    07:00 +26°C° 0 mm 0 m/s 751 mmHg 89%
    08:00 +27°C° 0 mm 0 m/s 751 mmHg 84%
    09:00 +29°C° 0.1 mm 0 m/s 751 mmHg 76%
    10:00 +32°C° 0.1 mm 1 m/s 751 mmHg 69%
    11:00 +33°C° 0.1 mm 1 m/s 751 mmHg 61%
    12:00 +33°C° 1.3 mm 1 m/s 751 mmHg 68%
    13:00 +32°C° 1.3 mm 1 m/s 750 mmHg 75%
    14:00 +31°C° 1.3 mm 1 m/s 750 mmHg 82%
    15:00 +30°C° 1.2 mm 1 m/s 750 mmHg 85%
    16:00 +30°C° 1.2 mm 1 m/s 750 mmHg 89%
    17:00 +29°C° 1.2 mm 1 m/s 750 mmHg 92%
    18:00 +28°C° 0.2 mm 1 m/s 750 mmHg 94%
    19:00 +27°C° 0.2 mm 1 m/s 751 mmHg 95%
    20:00 +25°C° 0.2 mm 0 m/s 751 mmHg 97%
    21:00 +24°C° 0 mm 0 m/s 751 mmHg 97%
    22:00 +24°C° 0 mm 0 m/s 751 mmHg 97%
    23:00 +24°C° 0 mm 0 m/s 751 mmHg 97%

    Poimâine, 5 Iunie, Vineri

    Timp Temperatura Precipitaţii Vânt Presiune Umiditate
    00:00 +24°C° 0 mm 0 m/s 751 mmHg 98%
    01:00 +24°C° 0 mm 0 m/s 750 mmHg 98%
    02:00 +23°C° 0 mm 0 m/s 750 mmHg 98%
    03:00 +23°C° 0 mm 0 m/s 750 mmHg 98%
    04:00 +23°C° 0 mm 0 m/s 750 mmHg 98%
    05:00 +23°C° 0 mm 0 m/s 750 mmHg 98%
    06:00 +24°C° 0 mm 0 m/s 751 mmHg 95%
    07:00 +25°C° 0 mm 0 m/s 751 mmHg 92%
    08:00 +26°C° 0 mm 0 m/s 751 mmHg 89%
    09:00 +28°C° 0.1 mm 0 m/s 751 mmHg 81%
    10:00 +29°C° 0.1 mm 0 m/s 751 mmHg 73%
    11:00 +31°C° 0.1 mm 0 m/s 751 mmHg 66%
    12:00 +33°C° 0 mm 1 m/s 750 mmHg 65%
    13:00 +33°C° 0 mm 1 m/s 750 mmHg 63%
    14:00 +33°C° 0 mm 1 m/s 749 mmHg 62%
    15:00 +33°C° 0.1 mm 1 m/s 749 mmHg 67%
    16:00 +32°C° 0.1 mm 1 m/s 749 mmHg 72%
    17:00 +31°C° 0.1 mm 1 m/s 749 mmHg 78%
    18:00 +30°C° 0.1 mm 1 m/s 750 mmHg 83%
    19:00 +28°C° 0.1 mm 1 m/s 750 mmHg 89%
    20:00 +27°C° 0.1 mm 1 m/s 750 mmHg 95%
    21:00 +27°C° 0 mm 1 m/s 751 mmHg 96%
    22:00 +25°C° 0 mm 0 m/s 751 mmHg 96%
    23:00 +24°C° 0 mm 0 m/s 751 mmHg 96%

    6 Iunie, Sâmbătă

    Timp Temperatura Precipitaţii Vânt Presiune Umiditate
    00:00 +24°C° 0.1 mm 0 m/s 751 mmHg 96%
    01:00 +24°C° 0.1 mm 0 m/s 750 mmHg 95%
    02:00 +26°C° 0.1 mm 1 m/s 750 mmHg 95%
    03:00 +26°C° 0 mm 1 m/s 750 mmHg 95%
    04:00 +24°C° 0 mm 0 m/s 751 mmHg 96%
    05:00 +24°C° 0 mm 0 m/s 751 mmHg 96%
    06:00 +25°C° 0 mm 0 m/s 751 mmHg 90%
    07:00 +26°C° 0 mm 0 m/s 752 mmHg 85%
    08:00 +28°C° 0 mm 0 m/s 752 mmHg 79%
    09:00 +30°C° 0 mm 0 m/s 752 mmHg 70%
    10:00 +32°C° 0 mm 0 m/s 752 mmHg 61%
    11:00 +34°C° 0 mm 0 m/s 751 mmHg 52%
    12:00 +35°C° 0.5 mm 1 m/s 751 mmHg 58%
    13:00 +34°C° 0.5 mm 1 m/s 750 mmHg 64%
    14:00 +33°C° 0.5 mm 1 m/s 749 mmHg 69%
    15:00 +31°C° 1.4 mm 1 m/s 749 mmHg 77%
    16:00 +30°C° 1.4 mm 1 m/s 749 mmHg 85%
    17:00 +28°C° 1.4 mm 1 m/s 749 mmHg 93%
    18:00 +28°C° 0.7 mm 1 m/s 750 mmHg 94%
    19:00 +27°C° 0.7 mm 1 m/s 751 mmHg 95%
    20:00 +27°C° 0.7 mm 1 m/s 751 mmHg 96%
    21:00 +26°C° 0.6 mm 1 m/s 751 mmHg 97%
    22:00 +26°C° 0.6 mm 1 m/s 752 mmHg 97%
    23:00 +24°C° 0.6 mm 0 m/s 752 mmHg 97%

    7 Iunie, Duminică

    Timp Temperatura Precipitaţii Vânt Presiune Umiditate
    00:00 +24°C° 1.2 mm 0 m/s 751 mmHg 97%
    01:00 +24°C° 1.2 mm 0 m/s 751 mmHg 98%
    02:00 +24°C° 1.2 mm 0 m/s 751 mmHg 98%
    03:00 +24°C° 0.1 mm 0 m/s 751 mmHg 98%
    04:00 +23°C° 0.1 mm 0 m/s 751 mmHg 98%
    05:00 +23°C° 0.1 mm 0 m/s 751 mmHg 98%
    06:00 +24°C° 0 mm 0 m/s 751 mmHg 96%
    07:00 +25°C° 0 mm 0 m/s 751 mmHg 93%
    08:00 +26°C° 0 mm 0 m/s 752 mmHg 90%
    09:00 +28°C° 0 mm 0 m/s 752 mmHg 81%
    10:00 +30°C° 0 mm 0 m/s 752 mmHg 71%
    11:00 +32°C° 0 mm 0 m/s 752 mmHg 62%
    12:00 +31°C° 0 mm 0 m/s 751 mmHg 63%
    13:00 +33°C° 0 mm 1 m/s 751 mmHg 63%
    14:00 +33°C° 0 mm 1 m/s 750 mmHg 64%
    15:00 +32°C° 0.9 mm 1 m/s 750 mmHg 72%
    16:00 +30°C° 0.9 mm 1 m/s 750 mmHg 80%
    17:00 +29°C° 0.9 mm 2 m/s 750 mmHg 87%
    18:00 +28°C° 0.7 mm 1 m/s 750 mmHg 91%
    19:00 +27°C° 0.7 mm 1 m/s 751 mmHg 94%
    20:00 +26°C° 0.7 mm 1 m/s 751 mmHg 97%
    21:00 +26°C° 0.5 mm 1 m/s 751 mmHg 97%
    22:00 +26°C° 0.5 mm 1 m/s 752 mmHg 97%
    23:00 +26°C° 0.5 mm 1 m/s 752 mmHg 97%

    8 Iunie, Luni

    Timp Temperatura Precipitaţii Vânt Presiune Umiditate
    00:00 +24°C° 0.6 mm 0 m/s 751 mmHg 97%
    01:00 +24°C° 0.6 mm 0 m/s 751 mmHg 98%
    02:00 +23°C° 0.6 mm 0 m/s 750 mmHg 98%
    03:00 +23°C° 0.1 mm 0 m/s 750 mmHg 98%
    04:00 +23°C° 0.1 mm 0 m/s 751 mmHg 98%
    05:00 +23°C° 0.1 mm 0 m/s 751 mmHg 98%
    06:00 +24°C° 0.3 mm 0 m/s 751 mmHg 96%
    07:00 +25°C° 0.3 mm 0 m/s 751 mmHg 94%
    08:00 +26°C° 0.3 mm 0 m/s 751 mmHg 91%
    09:00 +28°C° 1.1 mm 0 m/s 751 mmHg 82%
    10:00 +29°C° 1.1 mm 0 m/s 751 mmHg 72%
    11:00 +31°C° 1.1 mm 0 m/s 751 mmHg 63%
    12:00 +33°C° 0 mm 1 m/s 750 mmHg 61%
    13:00 +34°C° 0 mm 1 m/s 750 mmHg 58%
    14:00 +35°C° 0 mm 2 m/s 749 mmHg 56%
    15:00 +34°C° 0.4 mm 2 m/s 749 mmHg 64%
    16:00 +31°C° 0.4 mm 2 m/s 749 mmHg 72%
    17:00 +30°C° 0.4 mm 2 m/s 749 mmHg 80%
    18:00 +28°C° 0.3 mm 2 m/s 750 mmHg 84%
    19:00 +27°C° 0.3 mm 1 m/s 751 mmHg 89%
    20:00 +26°C° 0.3 mm 1 m/s 751 mmHg 93%
    21:00 +26°C° 0.1 mm 1 m/s 751 mmHg 94%
    22:00 +24°C° 0.1 mm 0 m/s 751 mmHg 95%
    23:00 +24°C° 0.1 mm 0 m/s 751 mmHg 96%
    Arată mai mult